Location: Newark
(38.0892°N, 27.7378°E)
Time: 19:30:12
(UTC+00:00)

N. Korean satellite - Pass Details

Date: 17 December 2019
Orbit: 454 x 507 km, 97.2° (Epoch: 28 January)

Event Time Altitude Azimuth Distance (km) Brightness Sun altitude
Rises 15:43:17 0° 187° (S) 2,592 10.7 -10.1°
Reaches altitude 10° 15:45:30 10° 197° (SSW) 1,709 9.9 -10.5°
Maximum altitude 15:48:52 33° 263° (W) 855 8.6 -11.2°
Drops below altitude 10° 15:52:13 10° 329° (NNW) 1,703 9.5 -11.8°
Sets 15:54:26 0° 339° (NNW) 2,582 10.3 -12.2°
